sat.trackr.live / text

‹ back to catalog

ONEWEB-0503

NORAD 54121 · 2022-138J

PAYLOAD ACTIVE UNKNOWN

§ Identity

Operator
Country
UK
Launch date
2022-10-22
Launch site
SRILR
Launch vehicle
Mass (kg)
RCS (m²)

Purposes: comms

External: N2YO · Heavens-Above · Gunter

§ Orbital elements

Epoch: 2026-09-19T18:14:45.130848Z

Period
109.11 min
Inclination
87.9111°
Eccentricity
0.0002121
Mean motion
13.19726966 rev/d
Perigee alt
1,184.2 km
Apogee alt
1,187.4 km
Semi-major
7,563.9 km
B*
1.7730e-4
RAAN
286.1244°
Arg perigee
94.7832°
Mean anomaly
265.3543°
Rev number
18,929

§ Raw data

ONEWEB-05031 54121U 22138J   26262.76024457  .00000084  00000+0  17730-3 0  99942 54121  87.9111 286.1244 0002121  94.7832 265.3543 13.19726966189295

JSON: /api/v1/satellites/54121 · /tle

For live sub-satellite position, see the globe view (requires WebGL).

§ Visibility from observer

Set your observer location to see the next 7 days of passes ≥ 10°. The values pass through the URL so the page stays shareable.

No JS? Fill the form by hand. The geolocation button needs JavaScript.